Location: Caltech
(34.1382°N, 118.1253°W)
Time: 21:44:29
(UTC-07:00)

SO-67 - Visible Passes

Search period start: 30 August 2015 00:00
Search period end: 09 September 2015 00:00
Orbit: 435 x 437 km, 97.1° (Epoch: 30 August)

Date Brightness Start Highest point End Pass type
(mag) Time Alt. Az. Time Alt. Az. Time Alt. Az.
02 Sep ? 19:53:46 10° SW 19:56:01 17° W 19:58:09 10° NW visible
04 Sep ? 20:09:47 10° WSW 20:10:25 10° W 20:10:51 10° W visible
07 Sep ? 19:42:32 10° SSW 19:45:15 23° W 19:47:57 10° NW visible
